Location: Unspecified
(0.0000°N, 0.0000°E)
Time: 22:10:49
(UTC+00:00)

A-11 Canister half - All Passes

Search period start: 22 March 2017 00:00
Search period end: 01 April 2017 00:00
Orbit: 1527 x 1682 km, 47.3° (Epoch: 21 March)

Date Brightness Start Highest point End Pass type
(mag) Time Alt. Az. Time Alt. Az. Time Alt. Az.
22 Mar - 06:49:21 10° S 06:57:46 30° SE 07:06:11 10° ENE daylight
22 Mar - 08:52:51 10° SW 09:02:48 62° NW 09:12:45 10° NNE daylight
22 Mar - 11:07:03 10° NW 11:08:35 10° NW 11:10:05 10° NW daylight
22 Mar - 19:40:26 10° NNW 19:49:38 62° NE 19:58:46 10° SE visible
22 Mar - 21:47:03 10° WNW 21:54:28 27° SW 22:01:58 10° S visible
23 Mar - 06:27:58 10° S 06:36:08 28° SE 06:44:18 10° ENE daylight
23 Mar - 08:31:11 10° SW 08:41:11 66° NW 08:51:13 10° NNE daylight
23 Mar - 10:43:47 10° WNW 10:46:52 12° NW 10:49:58 10° NNW daylight
23 Mar - 19:18:55 10° NNW 19:28:04 57° NE 19:37:07 10° SE visible
23 Mar - 21:25:13 10° WNW 21:32:52 29° SW 21:40:36 10° S visible
24 Mar - 06:06:36 10° S 06:14:28 26° SE 06:22:21 10° E daylight
24 Mar - 08:09:32 10° SW 08:19:35 70° NW 08:29:40 10° NNE daylight
24 Mar - 10:21:07 10° WNW 10:25:11 13° NW 10:29:14 10° NNW daylight
24 Mar - 18:57:25 10° NNW 19:06:29 53° NE 19:15:28 10° SE visible
24 Mar - 21:03:24 10° WNW 21:11:17 31° SW 21:19:14 10° S visible
25 Mar - 05:45:17 10° S 05:52:50 24° SE 06:00:25 10° E visible
25 Mar - 07:47:53 10° SW 07:57:57 75° NW 08:08:05 10° NNE daylight
25 Mar - 09:58:42 10° WNW 10:03:29 14° NW 10:08:18 10° NNW daylight
25 Mar - 18:35:56 10° NNW 18:44:55 50° NE 18:53:47 10° ESE visible
25 Mar - 20:41:36 10° WNW 20:49:41 34° SW 20:57:51 10° SSE visible
26 Mar - 05:23:59 10° S 05:31:11 22° SE 05:38:25 10° E visible
26 Mar - 07:26:16 10° SW 07:36:21 80° NW 07:46:31 10° NE daylight
26 Mar - 09:36:23 10° W 09:41:48 16° NW 09:47:15 10° NNW daylight
26 Mar - 18:14:27 10° NNW 18:23:20 46° NE 18:32:06 10° ESE visible
26 Mar - 20:19:49 10° WNW 20:28:06 36° SW 20:36:26 10° SSE visible
27 Mar - 05:02:43 10° S 05:09:32 20° SE 05:16:23 10° E visible
27 Mar - 07:04:38 10° SW 07:14:44 85° NW 07:24:55 10° NE daylight
27 Mar - 09:14:11 10° W 09:20:08 17° NW 09:26:06 10° N daylight
27 Mar - 17:52:58 10° NNW 18:01:46 43° NE 18:10:24 10° ESE daylight
27 Mar - 19:58:03 10° WNW 20:06:31 39° SW 20:15:01 10° SSE visible
28 Mar - 04:41:29 10° S 04:47:52 19° SE 04:54:18 10° E visible
28 Mar - 06:43:02 10° SW 06:53:07 89° WNW 07:03:19 10° NE daylight
28 Mar - 08:52:03 10° W 08:58:28 19° NW 09:04:54 10° N daylight
28 Mar - 17:31:31 10° NNW 17:40:11 40° NE 17:48:40 10° ESE daylight
28 Mar - 19:36:19 10° WNW 19:44:57 42° SW 19:53:34 10° SSE visible
29 Mar - 04:20:18 10° S 04:26:13 17° SE 04:32:09 10° E visible
29 Mar - 06:21:28 10° SW 06:31:31 86° SE 06:41:42 10° NE daylight
29 Mar - 08:29:59 10° W 08:36:47 20° NW 08:43:39 10° N daylight
29 Mar - 17:10:04 10° NNW 17:18:35 37° NE 17:26:56 10° ESE daylight
29 Mar - 19:14:35 10° WNW 19:23:22 45° SW 19:32:07 10° SSE visible
30 Mar - 03:59:11 10° SSE 04:04:33 16° SE 04:09:56 10° E visible
30 Mar - 05:59:53 10° SW 06:09:54 81° SE 06:20:04 10° NE daylight
30 Mar - 08:07:58 10° W 08:15:08 22° NW 08:22:21 10° N daylight
30 Mar - 16:48:37 10° NNW 16:56:59 35° NE 17:05:11 10° ESE daylight
30 Mar - 18:52:52 10° WNW 19:01:48 49° SW 19:10:40 10° SSE visible
31 Mar - 03:38:09 10° SSE 03:42:53 14° SE 03:47:37 10° ESE visible
31 Mar - 05:38:19 10° SW 05:48:18 76° SE 05:58:25 10° NE visible
31 Mar - 07:45:59 10° W 07:53:29 23° NW 08:01:03 10° N daylight
31 Mar - 16:27:12 10° NNW 16:35:24 32° NE 16:43:24 10° ESE daylight
31 Mar - 18:31:10 10° NW 18:40:13 52° SW 18:49:12 10° SSE visible
